Date String (YYYY-MM-DD hh:mm:ss) UTC,Instrument flags,absolute air pressure of the measurement (hPa),sample flow rate (lpm),inlet stack bypass flow (lpm),air temperature of the measurement (°C),ambient temperature measured by the external sensor (°C),aerosol sample conditioner tube jacket temperature (°C),OPC LED temperature (°C),internal box temperature (°C),relative humidity of the measurement (%),span deviation,mass concentration of particles derived from Lorenz-Mie calculation of OPC scattering (μg/m³),mass concentration of particles derived from Lorenz-Mie calculation of OPC scattering (μg/m³),mass concentration of particles derived from Lorenz-Mie calculation of OPC scattering (μg/m³)
DateTimeUTC,F1_M11,P_M11,Q1_M11,Q2_M11,T1_M11,T2_M11,T3_M11,T4_M11,T5_M11,U1_M11,ZSPAN_M11,X2_M11,X0_M11,X1_M11
2023-11-11 04:00:00,SystemResetWarning,0831.2,4.99,000.00,024.2,023.0,000.0,032.7,025.5,7.9,0000.0,0003.79,0009.39,0003.24
2023-11-11 04:01:00,SystemResetWarning,0831.2,5.00,000.00,024.2,023.0,000.0,032.7,025.5,7.8,0000.0,0003.78,0008.82,0003.24
2023-11-11 04:02:00,SystemResetWarning,0831.1,5.01,000.00,024.2,023.0,000.0,032.7,025.5,7.8,0000.0,0003.80,0008.56,0003.26
2023-11-11 04:03:00,SystemResetWarning,0831.1,5.01,000.00,024.2,023.0,000.0,032.7,025.5,7.7,0000.0,0003.79,0007.92,0003.26
2023-11-11 04:04:00,SystemResetWarning,0831.2,5.00,000.00,024.2,023.0,000.0,032.7,025.5,7.4,0000.0,0003.79,0007.50,0003.27
2023-11-11 04:05:00,SystemResetWarning,0831.1,4.99,000.00,024.2,023.0,000.0,032.7,025.5,7.3,0000.0,0003.81,0007.42,0003.28
2023-11-11 04:06:00,SystemResetWarning,0831.2,4.99,000.00,024.2,023.0,000.0,032.6,025.5,7.8,0000.0,0003.81,0007.58,0003.28
2023-11-11 04:07:00,SystemResetWarning,0831.2,4.99,000.00,024.2,023.0,000.0,032.6,025.5,7.9,0000.0,0003.83,0007.57,0003.29
2023-11-11 04:08:00,SystemResetWarning,0831.2,5.01,000.00,024.2,022.9,000.0,032.6,025.5,8.1,0000.0,0003.85,0007.60,0003.30
2023-11-11 04:09:00,SystemResetWarning,0831.1,5.01,000.00,024.2,022.9,000.0,032.6,025.5,8.2,0000.0,0003.83,0007.56,0003.29
2023-11-11 04:10:00,SystemResetWarning,0831.1,4.99,000.00,024.2,022.9,000.0,032.6,025.5,8.1,0000.0,0003.81,0007.60,0003.28
2023-11-11 04:11:00,SystemResetWarning,0831.1,4.99,000.00,024.1,022.9,000.0,032.6,025.5,8.2,0000.0,0003.81,0007.66,0003.27
2023-11-11 04:12:00,SystemResetWarning,0831.1,5.00,000.00,024.1,022.9,000.0,032.6,025.5,8.2,0000.0,0003.78,0007.64,0003.25
2023-11-11 04:13:00,SystemResetWarning,0831.1,5.00,000.00,024.1,022.9,000.0,032.6,025.5,8.0,0000.0,0003.73,0008.16,0003.22
2023-11-11 04:14:00,SystemResetWarning,0831.1,5.00,000.00,024.1,022.9,000.0,032.6,025.5,7.9,0000.0,0003.68,0008.10,0003.21
2023-11-11 04:15:00,SystemResetWarning,0831.1,5.00,000.00,024.1,022.9,000.0,032.6,025.5,7.9,0000.0,0003.67,0008.07,0003.21
2023-11-11 04:16:00,SystemResetWarning,0831.1,5.01,000.00,024.1,022.9,000.0,032.6,025.4,8.0,0000.0,0003.65,0007.68,0003.21
2023-11-11 04:17:00,SystemResetWarning,0831.2,5.00,000.00,024.1,022.9,000.0,032.5,025.4,8.0,0000.0,0003.62,0007.49,0003.21
2023-11-11 04:18:00,SystemResetWarning,0831.2,5.00,000.00,024.1,022.9,000.0,032.5,025.5,7.9,0000.0,0003.61,0007.43,0003.22
2023-11-11 04:19:00,SystemResetWarning,0831.2,5.00,000.00,024.1,022.9,000.0,032.5,025.4,7.9,0000.0,0003.57,0007.29,0003.22
2023-11-11 04:20:00,SystemResetWarning,0831.1,4.99,000.00,024.1,022.9,000.0,032.5,025.4,7.9,0000.0,0003.59,0007.34,0003.23
2023-11-11 04:21:00,SystemResetWarning,0831.1,5.00,000.00,024.1,022.9,000.0,032.5,025.4,7.9,0000.0,0003.61,0007.44,0003.24
2023-11-11 04:22:00,SystemResetWarning,0831.1,5.00,000.00,024.0,022.9,000.0,032.5,025.4,7.9,0000.0,0003.63,0007.55,0003.25
2023-11-11 04:23:00,SystemResetWarning,0831.1,4.99,000.00,024.0,022.8,000.0,032.5,025.4,7.8,0000.0,0003.66,0007.51,0003.26
2023-11-11 04:24:00,SystemResetWarning,0831.1,5.00,000.00,024.0,022.8,000.0,032.5,025.4,7.8,0000.0,0003.73,0007.00,0003.28
2023-11-11 04:25:00,SystemResetWarning,0831.1,5.02,000.00,024.0,022.8,000.0,032.5,025.3,8.0,0000.0,0003.79,0006.97,0003.29
2023-11-11 04:26:00,SystemResetWarning,0831.1,4.99,000.00,024.0,022.8,000.0,032.5,025.3,7.9,0000.0,0003.81,0007.08,0003.30
2023-11-11 04:27:00,SystemResetWarning,0831.1,5.00,000.00,024.0,022.8,000.0,032.5,025.3,7.9,0000.0,0003.80,0006.94,0003.30
2023-11-11 04:28:00,SystemResetWarning,0831.1,4.99,000.00,024.0,022.8,000.0,032.5,025.3,7.9,0000.0,0003.82,0007.25,0003.31
2023-11-11 04:29:00,SystemResetWarning,0831.0,5.00,000.00,024.0,022.8,000.0,032.5,025.3,7.9,0000.0,0003.80,0007.25,0003.30
2023-11-11 04:30:00,SystemResetWarning,0831.1,5.01,000.00,024.0,022.8,000.0,032.4,025.3,7.9,0000.0,0003.77,0007.14,0003.29
2023-11-11 04:31:00,SystemResetWarning,0831.1,5.00,000.00,024.0,022.8,000.0,032.4,025.2,8.2,0000.0,0003.78,0007.23,0003.28
2023-11-11 04:32:00,SystemResetWarning,0831.1,5.00,000.00,024.0,022.8,000.0,032.4,025.2,8.3,0000.0,0003.79,0007.07,0003.28
2023-11-11 04:33:00,SystemResetWarning,0831.1,5.00,000.00,023.9,022.8,000.0,032.4,025.3,8.1,0000.0,0003.76,0006.65,0003.28
2023-11-11 04:34:00,SystemResetWarning,0831.1,5.01,000.00,023.9,022.8,000.0,032.4,025.3,8.1,0000.0,0003.72,0006.59,0003.28
2023-11-11 04:35:00,SystemResetWarning,0831.1,5.00,000.00,023.9,022.8,000.0,032.4,025.2,8.1,0000.0,0003.71,0006.63,0003.28
2023-11-11 04:36:00,SystemResetWarning,0831.1,5.00,000.00,023.9,022.8,000.0,032.4,025.3,8.1,0000.0,0003.70,0006.51,0003.28
2023-11-11 04:37:00,SystemResetWarning,0831.1,5.00,000.00,023.9,022.8,000.0,032.4,025.3,8.1,0000.0,0003.71,0006.55,0003.28
2023-11-11 04:38:00,SystemResetWarning,0831.2,5.00,000.00,023.9,022.8,000.0,032.4,025.3,8.1,0000.0,0003.69,0006.46,0003.27
2023-11-11 04:39:00,SystemResetWarning,0831.1,5.00,000.00,023.9,022.8,000.0,032.4,025.3,8.1,0000.0,0003.70,0006.31,0003.25
2023-11-11 04:40:00,SystemResetWarning,0831.1,5.00,000.00,023.9,022.7,000.0,032.4,025.3,8.2,0000.0,0003.71,0006.27,0003.24
2023-11-11 04:41:00,SystemResetWarning,0831.1,5.00,000.00,023.9,022.7,000.0,032.4,025.3,8.2,0000.0,0003.73,0006.43,0003.23
2023-11-11 04:42:00,SystemResetWarning,0831.1,5.00,000.00,023.9,022.7,000.0,032.3,025.3,8.3,0000.0,0003.71,0006.44,0003.22
2023-11-11 04:43:00,SystemResetWarning,0831.1,5.00,000.00,023.9,022.7,000.0,032.3,025.3,8.2,0000.0,0003.69,0006.56,0003.21
2023-11-11 04:44:00,SystemResetWarning,0831.1,5.00,000.00,023.9,022.7,000.0,032.3,025.3,8.3,0000.0,0003.67,0006.52,0003.20
2023-11-11 04:45:00,SystemResetWarning,0831.1,5.00,000.00,023.9,022.7,000.0,032.3,025.2,8.3,0000.0,0003.69,0006.58,0003.20
2023-11-11 04:46:00,SystemResetWarning,0831.1,5.01,000.00,023.9,022.8,000.0,032.3,025.2,8.2,0000.0,0003.65,0006.30,0003.18
2023-11-11 04:47:00,SystemResetWarning,0831.1,5.00,000.00,023.9,022.8,000.0,032.3,025.2,8.3,0000.0,0003.61,0006.15,0003.16
2023-11-11 04:48:00,SystemResetWarning,0831.1,4.98,000.00,023.9,022.8,000.0,032.3,025.3,8.3,0000.0,0003.54,0005.85,0003.14
2023-11-11 04:49:00,SystemResetWarning,0831.1,4.98,000.00,023.9,022.8,000.0,032.3,025.3,7.9,0000.0,0003.50,0005.68,0003.12
2023-11-11 04:50:00,SystemResetWarning,0831.2,5.01,000.00,023.9,022.8,000.0,032.3,025.2,8.1,0000.0,0003.46,0005.91,0003.11
2023-11-11 04:51:00,SystemResetWarning,0831.2,5.00,000.00,023.9,022.8,000.0,032.3,025.2,8.3,0000.0,0003.45,0006.67,0003.10
2023-11-11 04:52:00,SystemResetWarning,0831.2,5.02,000.00,023.9,022.8,000.0,032.3,025.2,8.3,0000.0,0003.47,0007.10,0003.11
2023-11-11 04:53:00,SystemResetWarning,0831.2,4.99,000.00,023.9,022.7,000.0,032.3,025.3,8.2,0000.0,0003.50,0007.64,0003.10
2023-11-11 04:54:00,SystemResetWarning,0831.2,4.99,000.00,023.9,022.7,000.0,032.3,025.2,8.3,0000.0,0003.52,0008.05,0003.10
2023-11-11 04:55:00,SystemResetWarning,0831.2,4.99,000.00,023.9,022.7,000.0,032.3,025.2,8.3,0000.0,0003.51,0007.96,0003.08
2023-11-11 04:56:00,SystemResetWarning,0831.2,5.02,000.00,023.9,022.7,000.0,032.3,025.2,8.5,0000.0,0003.52,0008.01,0003.06
2023-11-11 04:57:00,SystemResetWarning,0831.2,5.00,000.00,023.8,022.7,000.0,032.3,025.2,8.5,0000.0,0003.53,0008.05,0003.07
2023-11-11 04:58:00,SystemResetWarning,0831.2,4.99,000.00,023.8,022.6,000.0,032.3,025.2,8.3,0000.0,0003.54,0008.07,0003.08
2023-11-11 04:59:00,SystemResetWarning,0831.2,4.99,000.00,023.8,022.6,000.0,032.3,025.2,8.4,0000.0,0003.54,0008.44,0003.10
